Погода в Кувакине

Россия / Чувашская Республика     54°58′59″N   46°24′25″E
темп.,
°C
ветер,
м/с
пор.,
м/с
влажн.,
%
обл.,
%
осадки,
мм/ч
давл.,
гПа
погр.,
м
28 сентября, вт
вт2800:00+4св61087100 0.1 1021675
03:00+4св61084100 0.1 1023793
06:00+4св51082100 0.0 1024742
09:00+5св69725 0.0 1026695
12:00+8св57535 0.0 10271196
15:00+9св67486 0.0 10271409
18:00+5ссв35675 0.0 102976
21:00+3ссв347514 0.0 103073
29 сентября, ср
ср2900:00+2ссв247947 0.0 103167
03:00+1с228483 0.0 103127
06:00+1с228823 0.0 103233
09:00+5с3566100 0.0 1032381
12:00+9с345266 0.0 10311160
15:00+9с454838 0.0 10311358
18:00+5с226662 0.0 103119
21:00+4ссв2273100 0.0 103113
30 сентября, чт
чт3000:00+3ссз227678 0.0 103113
03:00+3ссз228283 0.0 103230
06:00+4сз248289 0.0 1032149
09:00+6ссз2382100 0.0 1032246
12:00+8сз2273100 0.0 1032555
15:00+10сз246384 0.0 1031872
18:00+9зсз2569100 0.0 1031106
21:00+8сз2576100 0.0 1031161
1 октября, пт
пт100:00+7сз238670 0.0 103143
03:00+8зсз2585100 0.0 1031152
06:00+8сз37895 0.0 1031234
09:00+10ссз468242 0.0 1031405
12:00+14ссз45626 0.0 1031889
15:00+15ссз45545 0.0 10311050
18:00+11сз22745 0.0 103111
21:00+9сз228529 0.0 103211
2 октября, сб
сб200:00+8сз229125 0.0 103211
03:00+8сз119376 0.0 103211
06:00+9зсз1288100 0.0 103222
09:00+10сз1384100 0.1 1033168
12:00+12сз2379100 0.0 1033349
15:00+12сз2376100 0.0 1033489
18:00+11сз1184100 0.0 103316
21:00+11сз1186100 0.1 103410